Time,TemperatureF,DewpointF,PressureIn,WindDirection,WindDirectionDegrees,WindSpeedMPH,WindSpeedGustMPH,Humidity,HourlyPrecipIn,Conditions,Clouds,dailyrainin,SoftwareType,DateUTC
2013-12-07 00:22:00,33.0,22.0,30.27,South,187,0.0,0.0,64,0.00,,,0.00,,2013-12-07 07:22:00,
2013-12-07 00:42:00,33.0,23.0,30.27,SE,141,0.0,0.0,67,0.00,,,0.00,,2013-12-07 07:42:00,
2013-12-07 01:12:00,34.0,23.0,30.27,SE,146,0.0,0.0,63,0.00,,,0.00,,2013-12-07 08:12:00,
2013-12-07 01:21:00,34.0,23.0,30.27,SE,146,0.0,0.0,63,0.00,,,0.00,,2013-12-07 08:21:00,
2013-12-07 06:22:00,28.0,21.0,30.25,SE,141,2.0,4.0,76,0.00,,,0.00,,2013-12-07 13:22:00,
2013-12-07 06:52:00,29.0,22.0,30.25,SE,124,0.0,0.0,74,0.00,,,0.00,,2013-12-07 13:52:00,
2013-12-07 07:21:00,30.0,23.0,30.24,SE,144,0.0,0.0,74,0.00,,,0.00,,2013-12-07 14:21:00,
2013-12-07 07:42:00,30.0,23.0,30.24,SSE,160,0.0,0.0,74,0.00,,,0.00,,2013-12-07 14:42:00,
2013-12-07 07:52:00,29.0,22.0,30.25,SW,217,0.0,0.0,75,0.00,,,0.00,,2013-12-07 14:52:00,
2013-12-07 09:23:00,35.0,26.0,30.26,NNW,338,0.0,0.0,69,0.00,,,0.00,,2013-12-07 16:23:00,
2013-12-07 09:42:00,35.0,26.0,30.26,NNW,336,0.0,0.0,69,0.00,,,0.00,,2013-12-07 16:42:00,
2013-12-07 09:53:00,37.0,27.0,30.26,NNE,33,0.0,0.0,68,0.00,,,0.00,,2013-12-07 16:53:00,
2013-12-07 10:22:00,40.0,29.0,30.26,North,11,0.0,0.0,64,0.00,,,0.00,,2013-12-07 17:22:00,
2013-12-07 10:43:00,40.0,28.0,30.26,WSW,250,0.0,0.0,63,0.00,,,0.00,,2013-12-07 17:43:00,
2013-12-07 10:52:00,41.0,29.0,30.27,WNW,302,0.0,5.0,62,0.00,,,0.00,,2013-12-07 17:52:00,
2013-12-07 11:22:00,43.0,26.0,30.26,WSW,256,1.0,4.0,51,0.00,,,0.00,,2013-12-07 18:22:00,
2013-12-07 11:43:00,44.0,27.0,30.26,WNW,297,1.0,5.0,51,0.00,,,0.00,,2013-12-07 18:43:00,
2013-12-07 11:52:00,45.0,25.0,30.26,NNW,329,0.0,3.0,46,0.00,,,0.00,,2013-12-07 18:52:00,
2013-12-07 12:11:00,46.0,27.0,30.26,North,4,0.0,6.0,48,0.00,,,0.00,,2013-12-07 19:11:00,
2013-12-07 12:21:00,48.0,26.0,30.25,West,264,7.0,11.0,42,0.00,,,0.00,,2013-12-07 19:21:00,
2013-12-07 12:42:00,49.0,23.0,30.24,West,264,8.0,12.0,36,0.00,,,0.00,,2013-12-07 19:42:00,
2013-12-07 12:52:00,49.0,21.0,30.22,West,264,6.0,12.0,33,0.00,,,0.00,,2013-12-07 19:52:00,
2013-12-07 13:22:00,50.0,23.0,30.19,SW,221,4.0,11.0,34,0.00,,,0.00,,2013-12-07 20:22:00,
2013-12-07 13:53:00,51.0,21.0,30.18,WNW,295,7.0,12.0,30,0.00,,,0.00,,2013-12-07 20:53:00,
2013-12-07 14:21:00,51.0,21.0,30.18,West,269,6.0,13.0,31,0.00,,,0.00,,2013-12-07 21:21:00,
2013-12-07 14:43:00,51.0,22.0,30.18,WNW,293,7.0,10.0,32,0.00,,,0.00,,2013-12-07 21:43:00,
2013-12-07 14:53:00,51.0,22.0,30.17,WNW,282,7.0,11.0,32,0.00,,,0.00,,2013-12-07 21:53:00,
2013-12-07 15:23:00,51.0,21.0,30.16,WSW,255,5.0,10.0,30,0.00,,,0.00,,2013-12-07 22:23:00,
2013-12-07 15:53:00,54.0,15.0,30.16,WSW,244,10.0,18.0,21,0.00,,,0.00,,2013-12-07 22:53:00,
2013-12-07 16:21:00,53.0,19.0,30.16,WSW,245,7.0,14.0,26,0.00,,,0.00,,2013-12-07 23:21:00,
2013-12-07 16:52:00,51.0,21.0,30.16,SW,226,7.0,20.0,30,0.00,,,0.00,,2013-12-07 23:52:00,
2013-12-07 17:22:00,49.0,23.0,30.17,WSW,240,6.0,13.0,35,0.00,,,0.00,,2013-12-08 00:22:00,
2013-12-07 17:52:00,46.0,22.0,30.17,WSW,238,5.0,9.0,39,0.00,,,0.00,,2013-12-08 00:52:00,
2013-12-07 18:22:00,44.0,23.0,30.18,SW,232,2.0,7.0,43,0.00,,,0.00,,2013-12-08 01:22:00,
2013-12-07 18:52:00,44.0,23.0,30.19,South,181,5.0,8.0,44,0.00,,,0.00,,2013-12-08 01:52:00,
2013-12-07 19:21:00,43.0,24.0,30.20,SW,219,4.0,9.0,46,0.00,,,0.00,,2013-12-08 02:21:00,
2013-12-07 19:52:00,42.0,22.0,30.21,SW,233,0.0,7.0,45,0.00,,,0.00,,2013-12-08 02:52:00,
2013-12-07 20:22:00,41.0,21.0,30.23,WNW,302,0.0,0.0,45,0.00,,,0.00,,2013-12-08 03:22:00,
2013-12-07 20:54:00,41.0,22.0,30.23,SW,228,0.0,5.0,46,0.00,,,0.00,,2013-12-08 03:54:00,
2013-12-07 21:02:00,-999.0,-99.9,30.24,SW,225,0.0,0.0,-999,0.00,,,0.00,,2013-12-08 04:02:00,
2013-12-07 21:22:00,40.0,22.0,30.24,WSW,244,5.0,8.0,48,0.00,,,0.00,,2013-12-08 04:22:00,
2013-12-07 21:53:00,40.0,22.0,30.24,SW,229,1.0,6.0,49,0.00,,,0.00,,2013-12-08 04:53:00,
2013-12-07 22:22:00,39.0,21.0,30.24,South,183,0.0,5.0,49,0.00,,,0.00,,2013-12-08 05:22:00,
2013-12-07 22:53:00,37.0,21.0,30.24,SE,142,0.0,0.0,52,0.00,,,0.00,,2013-12-08 05:53:00,
2013-12-07 23:22:00,36.0,21.0,30.25,West,263,0.0,0.0,53,0.00,,,0.00,,2013-12-08 06:22:00,
2013-12-07 23:52:00,37.0,21.0,30.25,SW,232,0.0,0.0,53,0.00,,,0.00,,2013-12-08 06:52:00,